JBU598 KMCO-KLGA

Flight info

Callsign JBU598
Flight time 2h 12m
Altitude 35000
Route FATHE4 VIYAP Q87 HURTS PROUD2
Aircraft A320/M-SDE3FGHIRWY/LB1

Departure

Time 2026-04-25 16:52
Airport Orlando International Airport (KMCO)

Arrival

Time 2026-04-25 19:05
Airport LaGuardia Airport (KLGA)
Time Latitude Longitude Altitude Speed Heading
2026-04-25 16:16 28.42683 -81.31534 102 ft 0 kts 124°
2026-04-25 16:37 28.42694 -81.31554 101 ft 4 kts 115°
2026-04-25 16:37 28.42703 -81.31583 101 ft 4 kts 97°
2026-04-25 16:37 28.42702 -81.31612 101 ft 4 kts 70°
2026-04-25 16:38 28.42689 -81.31636 100 ft 4 kts 31°
2026-04-25 16:38 28.42669 -81.31643 102 ft 1 kts 348°
2026-04-25 16:42 28.42675 -81.31644 102 ft 2 kts 348°
2026-04-25 16:43 28.42696 -81.31649 102 ft 5 kts 348°
2026-04-25 16:43 28.42738 -81.31659 102 ft 7 kts 348°
2026-04-25 16:43 28.42790 -81.31672 102 ft 9 kts 348°
2026-04-25 16:43 28.42853 -81.31688 102 ft 10 kts 347°
2026-04-25 16:44 28.42922 -81.31716 102 ft 11 kts 328°
2026-04-25 16:44 28.42971 -81.31786 102 ft 12 kts 298°
2026-04-25 16:44 28.43035 -81.31841 103 ft 13 kts 360°
2026-04-25 16:44 28.43128 -81.31839 103 ft 14 kts
2026-04-25 16:45 28.43236 -81.31840 101 ft 17 kts 359°
2026-04-25 16:45 28.43359 -81.31842 101 ft 18 kts 359°
2026-04-25 16:45 28.43486 -81.31844 104 ft 18 kts 359°
2026-04-25 16:45 28.43610 -81.31844 105 ft 18 kts 357°
2026-04-25 16:46 28.43736 -81.31845 105 ft 18 kts 360°
2026-04-25 16:46 28.43862 -81.31847 107 ft 16 kts 360°
2026-04-25 16:46 28.43920 -81.31817 108 ft 10 kts 72°
2026-04-25 16:46 28.43922 -81.31789 107 ft 11 kts 88°
2026-04-25 16:47 28.43923 -81.31597 102 ft 17 kts 89°
2026-04-25 16:47 28.43925 -81.31450 101 ft 20 kts 89°
2026-04-25 16:47 28.43932 -81.31287 105 ft 20 kts 87°
2026-04-25 16:47 28.43938 -81.31157 114 ft 15 kts 86°
2026-04-25 16:48 28.43943 -81.31056 120 ft 11 kts 89°
2026-04-25 16:48 28.43945 -81.30938 100 ft 20 kts 77°
2026-04-25 16:48 28.43944 -81.30851 122 ft 1 kts 99°
2026-04-25 16:48 28.43938 -81.30812 122 ft 16 kts 96°
2026-04-25 16:49 28.43930 -81.30672 120 ft 19 kts 94°
2026-04-25 16:49 28.43921 -81.30482 100 ft 29 kts 93°
2026-04-25 16:49 28.43909 -81.30266 101 ft 24 kts 92°
2026-04-25 16:49 28.43900 -81.30076 103 ft 23 kts 93°
2026-04-25 16:50 28.43876 -81.29939 103 ft 16 kts 117°
2026-04-25 16:50 28.43796 -81.29843 103 ft 18 kts 147°
2026-04-25 16:50 28.43674 -81.29803 104 ft 19 kts 181°
2026-04-25 16:50 28.43570 -81.29801 104 ft 9 kts 164°
2026-04-25 16:51 28.43551 -81.29730 103 ft 11 kts 78°
2026-04-25 16:51 28.43552 -81.29643 103 ft 10 kts 92°
2026-04-25 16:51 28.43518 -81.29589 105 ft 10 kts 169°
2026-04-25 16:51 28.43486 -81.29587 105 ft 21 kts 181°
2026-04-25 16:52 28.42603 -81.29579 100 ft 124 kts 180°
2026-04-25 16:52 28.41591 -81.29571 118 ft 165 kts 180°
2026-04-25 16:52 28.40475 -81.29575 814 ft 156 kts 178°
2026-04-25 16:52 28.39384 -81.29550 1396 ft 161 kts 179°
2026-04-25 16:53 28.37063 -81.28529 1893 ft 207 kts 142°
2026-04-25 16:53 28.35832 -81.27495 2191 ft 232 kts 146°
2026-04-25 16:53 28.34427 -81.26430 2614 ft 254 kts 143°
2026-04-25 16:54 28.33347 -81.24821 3255 ft 266 kts 110°
2026-04-25 16:54 28.33218 -81.22717 3948 ft 276 kts 76°
2026-04-25 16:54 28.34149 -81.20861 4870 ft 274 kts 43°
2026-04-25 16:54 28.35818 -81.19794 5543 ft 280 kts 11°
2026-04-25 16:55 28.37725 -81.19845 6320 ft 283 kts 343°
2026-04-25 16:55 28.39597 -81.20609 7176 ft 282 kts 339°
2026-04-25 16:55 28.41415 -81.21366 8015 ft 282 kts 339°
2026-04-25 16:55 28.43262 -81.22116 8889 ft 282 kts 339°
2026-04-25 16:56 28.45111 -81.22867 9679 ft 284 kts 339°
2026-04-25 16:56 28.46993 -81.23598 10306 ft 292 kts 343°
2026-04-25 16:56 28.49057 -81.24106 10477 ft 316 kts 349°
2026-04-25 16:56 28.51318 -81.24445 10602 ft 338 kts 352°
2026-04-25 16:57 28.53702 -81.24710 10962 ft 349 kts 353°
2026-04-25 16:57 28.54524 -81.24795 11156 ft 351 kts 353°
2026-04-25 16:57 28.58588 -81.25240 12212 ft 355 kts 352°
2026-04-25 16:57 28.61043 -81.25549 12861 ft 357 kts 352°
2026-04-25 16:58 28.63514 -81.25882 13540 ft 358 kts 351°
2026-04-25 16:58 28.65997 -81.26234 14120 ft 361 kts 351°
2026-04-25 16:58 28.68496 -81.26596 14656 ft 363 kts 351°
2026-04-25 16:58 28.71016 -81.26962 15167 ft 367 kts 351°
2026-04-25 16:59 28.73561 -81.27329 15665 ft 370 kts 351°
2026-04-25 16:59 28.76128 -81.27697 16159 ft 374 kts 351°
2026-04-25 16:59 28.78719 -81.28070 16642 ft 377 kts 351°
2026-04-25 16:59 28.81330 -81.28445 17149 ft 381 kts 351°
2026-04-25 17:00 28.83970 -81.28823 17649 ft 384 kts 351°
2026-04-25 17:00 28.86643 -81.29147 18142 ft 388 kts 352°
2026-04-25 17:00 28.89350 -81.29397 18592 ft 392 kts 353°
2026-04-25 17:00 28.92082 -81.29608 19071 ft 395 kts 354°
2026-04-25 17:01 28.94831 -81.29805 19566 ft 397 kts 354°
2026-04-25 17:01 28.97597 -81.30008 20060 ft 400 kts 354°
2026-04-25 17:01 29.00380 -81.30233 20538 ft 402 kts 353°
2026-04-25 17:01 29.03174 -81.30509 20986 ft 404 kts 353°
2026-04-25 17:02 29.05979 -81.30824 21427 ft 406 kts 352°
2026-04-25 17:02 29.08797 -81.31158 21855 ft 408 kts 352°
2026-04-25 17:02 29.11593 -81.31481 22281 ft 410 kts 353°
2026-04-25 17:02 29.12553 -81.31575 22411 ft 411 kts 354°
2026-04-25 17:03 29.17365 -81.31918 23100 ft 415 kts 356°
2026-04-25 17:03 29.20222 -81.32060 23495 ft 418 kts 356°
2026-04-25 17:03 29.23134 -81.32195 23828 ft 420 kts 356°
2026-04-25 17:03 29.26060 -81.32337 24150 ft 422 kts 356°
2026-04-25 17:04 29.29003 -81.32492 24447 ft 425 kts 356°
2026-04-25 17:04 29.31962 -81.32663 24761 ft 427 kts 356°
2026-04-25 17:04 29.34928 -81.32845 25076 ft 429 kts 356°
2026-04-25 17:04 29.37921 -81.33030 25389 ft 431 kts 356°
2026-04-25 17:05 29.40916 -81.33214 25711 ft 433 kts 356°
2026-04-25 17:05 29.46959 -81.33584 26360 ft 437 kts 356°
2026-04-25 17:05 29.50002 -81.33770 26677 ft 439 kts 356°
2026-04-25 17:06 29.53059 -81.33956 26993 ft 441 kts 356°
2026-04-25 17:06 29.56126 -81.34143 27355 ft 441 kts 356°
2026-04-25 17:06 29.59182 -81.34326 27802 ft 440 kts 356°
2026-04-25 17:06 29.62235 -81.34507 28258 ft 439 kts 356°
2026-04-25 17:07 29.65279 -81.34691 28717 ft 437 kts 356°
2026-04-25 17:07 29.68314 -81.34871 29181 ft 436 kts 356°
2026-04-25 17:07 29.71341 -81.35047 29645 ft 435 kts 356°
2026-04-25 17:07 29.74360 -81.35222 30105 ft 434 kts 356°
2026-04-25 17:08 29.77373 -81.35394 30490 ft 433 kts 356°
2026-04-25 17:08 29.80377 -81.35561 30864 ft 432 kts 356°
2026-04-25 17:08 29.83370 -81.35725 31253 ft 431 kts 356°
2026-04-25 17:08 29.85356 -81.35834 31515 ft 430 kts 356°
2026-04-25 17:09 29.88344 -81.36003 31898 ft 430 kts 356°
2026-04-25 17:09 29.91327 -81.36175 32268 ft 429 kts 356°
2026-04-25 17:09 29.94306 -81.36347 32656 ft 428 kts 356°
2026-04-25 17:09 29.97281 -81.36519 33036 ft 428 kts 356°
2026-04-25 17:10 30.00248 -81.36689 33422 ft 427 kts 356°
2026-04-25 17:10 30.03213 -81.36863 33812 ft 426 kts 355°
2026-04-25 17:10 30.06173 -81.37036 34151 ft 426 kts 355°
2026-04-25 17:10 30.09128 -81.37208 34458 ft 425 kts 356°
2026-04-25 17:11 30.12079 -81.37379 34763 ft 424 kts 355°
2026-04-25 17:11 30.15026 -81.37548 34938 ft 424 kts 355°
2026-04-25 17:11 30.20998 -81.37894 34966 ft 435 kts 355°
2026-04-25 17:12 30.27025 -81.38246 34970 ft 437 kts 355°
2026-04-25 17:12 30.33105 -81.38599 34972 ft 438 kts 355°
2026-04-25 17:13 30.38197 -81.38891 34972 ft 438 kts 355°
2026-04-25 17:13 30.45264 -81.39300 34973 ft 438 kts 355°
2026-04-25 17:14 30.51349 -81.39639 34984 ft 438 kts 356°
2026-04-25 17:14 30.57437 -81.39960 34988 ft 438 kts 356°
2026-04-25 17:15 30.63525 -81.40273 34987 ft 438 kts 356°
2026-04-25 17:15 30.69615 -81.40587 34962 ft 438 kts 355°
2026-04-25 17:16 30.75692 -81.40899 34985 ft 437 kts 355°
2026-04-25 17:16 30.81759 -81.41229 34983 ft 436 kts 355°
2026-04-25 17:17 30.87818 -81.41557 34975 ft 435 kts 355°
2026-04-25 17:17 30.93868 -81.41882 34966 ft 435 kts 355°
2026-04-25 17:18 30.99905 -81.42206 34970 ft 435 kts 355°
2026-04-25 17:18 31.05948 -81.42530 34966 ft 435 kts 355°
2026-04-25 17:19 31.11993 -81.42854 34963 ft 435 kts 355°
2026-04-25 17:19 31.18000 -81.43169 34961 ft 435 kts 355°
2026-04-25 17:20 31.24090 -81.43151 34970 ft 438 kts
2026-04-25 17:20 31.29920 -81.41027 34965 ft 443 kts 22°
2026-04-25 17:21 31.35520 -81.37987 34962 ft 444 kts 22°
2026-04-25 17:21 31.41089 -81.34970 34958 ft 444 kts 22°
2026-04-25 17:22 31.45790 -81.32416 34951 ft 445 kts 22°
2026-04-25 17:22 31.52316 -81.28873 34953 ft 445 kts 22°
2026-04-25 17:23 31.57935 -81.25821 34947 ft 445 kts 22°
2026-04-25 17:23 31.63552 -81.22765 34946 ft 445 kts 22°
2026-04-25 17:24 31.69154 -81.19698 34934 ft 445 kts 22°
2026-04-25 17:24 31.74760 -81.16628 34928 ft 444 kts 22°
2026-04-25 17:25 31.80364 -81.13559 34921 ft 444 kts 22°
2026-04-25 17:25 31.85968 -81.10483 34917 ft 444 kts 22°
2026-04-25 17:26 31.91574 -81.07406 34911 ft 445 kts 22°
2026-04-25 17:26 31.97182 -81.04324 34912 ft 445 kts 22°
2026-04-25 17:27 32.02788 -81.01229 34914 ft 445 kts 22°
2026-04-25 17:27 32.06490 -80.99162 34917 ft 445 kts 23°
2026-04-25 17:28 32.13985 -80.94953 34910 ft 446 kts 23°
2026-04-25 17:28 32.19595 -80.91804 34944 ft 447 kts 23°
2026-04-25 17:29 32.25203 -80.88657 34955 ft 446 kts 23°
2026-04-25 17:29 32.30773 -80.85525 34969 ft 446 kts 23°
2026-04-25 17:30 32.36378 -80.82376 34950 ft 446 kts 23°
2026-04-25 17:30 32.41981 -80.79216 34949 ft 446 kts 23°
2026-04-25 17:31 32.47584 -80.76051 34949 ft 446 kts 23°
2026-04-25 17:31 32.53189 -80.72887 34948 ft 446 kts 23°
2026-04-25 17:32 32.58793 -80.69723 34950 ft 447 kts 23°
2026-04-25 17:32 32.64404 -80.66539 34944 ft 447 kts 23°
2026-04-25 17:33 32.70018 -80.63343 34938 ft 448 kts 23°
2026-04-25 17:33 32.75622 -80.60107 34929 ft 448 kts 24°
2026-04-25 17:34 32.81199 -80.56783 34942 ft 449 kts 24°
2026-04-25 17:34 32.86779 -80.53430 34932 ft 450 kts 24°
2026-04-25 17:35 32.92361 -80.50084 34931 ft 449 kts 24°
2026-04-25 17:35 32.97950 -80.46762 34932 ft 449 kts 24°
2026-04-25 17:36 33.03535 -80.43442 34930 ft 448 kts 24°
2026-04-25 17:36 33.09111 -80.40105 34925 ft 448 kts 24°
2026-04-25 17:37 33.14683 -80.36765 34922 ft 448 kts 24°
2026-04-25 17:37 33.20249 -80.33430 34921 ft 448 kts 24°
2026-04-25 17:38 33.23942 -80.31215 34920 ft 448 kts 24°
2026-04-25 17:38 33.31350 -80.26762 34934 ft 448 kts 24°
2026-04-25 17:39 33.36925 -80.23408 34920 ft 449 kts 24°
2026-04-25 17:39 33.42506 -80.20042 34918 ft 449 kts 24°
2026-04-25 17:40 33.48087 -80.16665 34917 ft 449 kts 24°
2026-04-25 17:40 33.53663 -80.13296 34930 ft 449 kts 24°
2026-04-25 17:41 33.59237 -80.09924 34937 ft 449 kts 24°
2026-04-25 17:41 33.64810 -80.06546 34933 ft 449 kts 24°
2026-04-25 17:42 33.70379 -80.03164 34920 ft 449 kts 24°
2026-04-25 17:42 33.75949 -79.99770 34919 ft 449 kts 24°
2026-04-25 17:43 33.81480 -79.96396 34926 ft 449 kts 24°
2026-04-25 17:43 33.87097 -79.92976 34898 ft 450 kts 24°
2026-04-25 17:44 33.92643 -79.89592 34894 ft 451 kts 24°
2026-04-25 17:44 33.98242 -79.86171 34897 ft 452 kts 24°
2026-04-25 17:45 34.01990 -79.83880 34900 ft 452 kts 24°
2026-04-25 17:45 34.09455 -79.79292 34904 ft 453 kts 24°
2026-04-25 17:46 34.15067 -79.75845 34921 ft 452 kts 24°
2026-04-25 17:46 34.20672 -79.72404 34923 ft 452 kts 24°
2026-04-25 17:47 34.26262 -79.68960 34923 ft 451 kts 24°
2026-04-25 17:47 34.31812 -79.65525 34930 ft 451 kts 24°
2026-04-25 17:48 34.40208 -79.60327 34915 ft 452 kts 24°
2026-04-25 17:49 34.45817 -79.56861 34904 ft 453 kts 24°
2026-04-25 17:49 34.51430 -79.53389 34905 ft 453 kts 24°
2026-04-25 17:50 34.57032 -79.49881 34916 ft 454 kts 25°
2026-04-25 17:50 34.62582 -79.46171 34910 ft 456 kts 26°
2026-04-25 17:51 34.68108 -79.42364 34905 ft 457 kts 26°
2026-04-25 17:51 34.73646 -79.38581 34923 ft 456 kts 26°
2026-04-25 17:52 34.79178 -79.34855 34935 ft 455 kts 25°
2026-04-25 17:52 34.84676 -79.31148 34919 ft 455 kts 25°
2026-04-25 17:53 34.90209 -79.27392 34907 ft 455 kts 25°
2026-04-25 17:53 34.95745 -79.23620 34902 ft 456 kts 25°
2026-04-25 17:54 35.01284 -79.19842 34867 ft 456 kts 25°
2026-04-25 17:54 35.06822 -79.16065 34857 ft 457 kts 25°
2026-04-25 17:55 35.12375 -79.12268 34852 ft 458 kts 25°
2026-04-25 17:55 35.17943 -79.08470 34859 ft 459 kts 25°
2026-04-25 17:56 35.23517 -79.04653 34859 ft 459 kts 25°
2026-04-25 17:56 35.29087 -79.00830 34873 ft 459 kts 25°
2026-04-25 17:57 35.34657 -78.97000 34880 ft 459 kts 25°
2026-04-25 17:57 35.40230 -78.93153 34887 ft 460 kts 25°
2026-04-25 17:58 35.45762 -78.89332 34888 ft 460 kts 25°
2026-04-25 17:58 35.51338 -78.85487 34884 ft 460 kts 25°
2026-04-25 17:59 35.56912 -78.81639 34883 ft 459 kts 25°
2026-04-25 17:59 35.62476 -78.77776 34877 ft 459 kts 25°
2026-04-25 18:00 35.67132 -78.74537 34884 ft 459 kts 25°
2026-04-25 18:00 35.73606 -78.70043 34890 ft 460 kts 25°
2026-04-25 18:01 35.79176 -78.66173 34877 ft 460 kts 25°
2026-04-25 18:01 35.84750 -78.62286 34865 ft 460 kts 25°
2026-04-25 18:02 35.90321 -78.58390 34891 ft 460 kts 25°
2026-04-25 18:02 35.94950 -78.55151 34890 ft 461 kts 25°
2026-04-25 18:03 36.00525 -78.51241 34886 ft 461 kts 25°
2026-04-25 18:03 36.06106 -78.47329 34884 ft 461 kts 25°
2026-04-25 18:04 36.11691 -78.43404 34883 ft 462 kts 25°
2026-04-25 18:04 36.17283 -78.39465 34884 ft 462 kts 26°
2026-04-25 18:05 36.22874 -78.35513 34881 ft 463 kts 25°
2026-04-25 18:05 36.28472 -78.31557 34876 ft 463 kts 25°
2026-04-25 18:06 36.34033 -78.27633 34875 ft 464 kts 25°
2026-04-25 18:06 36.39376 -78.23103 34873 ft 471 kts 39°
2026-04-25 18:07 36.44136 -78.17496 34876 ft 472 kts 39°
2026-04-25 18:07 36.48912 -78.11887 34871 ft 473 kts 39°
2026-04-25 18:08 36.53698 -78.06270 34864 ft 473 kts 39°
2026-04-25 18:08 36.58483 -78.00635 34919 ft 474 kts 39°
2026-04-25 18:09 36.63258 -77.94986 34941 ft 474 kts 39°
2026-04-25 18:09 36.68040 -77.89323 34928 ft 474 kts 39°
2026-04-25 18:10 36.72820 -77.83650 34913 ft 474 kts 39°
2026-04-25 18:10 36.77574 -77.78016 34884 ft 475 kts 39°
2026-04-25 18:11 36.82354 -77.72333 34886 ft 475 kts 39°
2026-04-25 18:11 36.87123 -77.66643 34889 ft 475 kts 39°
2026-04-25 18:12 36.91903 -77.60939 34880 ft 475 kts 39°
2026-04-25 18:12 36.96680 -77.55223 34899 ft 475 kts 39°
2026-04-25 18:13 37.01457 -77.49514 34907 ft 475 kts 39°
2026-04-25 18:13 37.06230 -77.43806 34920 ft 474 kts 39°
2026-04-25 18:14 37.13372 -77.35213 34912 ft 475 kts 39°
2026-04-25 18:14 37.18126 -77.29472 34909 ft 475 kts 39°
2026-04-25 18:15 37.22892 -77.23719 34911 ft 476 kts 39°
2026-04-25 18:15 37.27662 -77.17966 34920 ft 475 kts 39°
2026-04-25 18:16 37.32432 -77.12204 34913 ft 476 kts 39°
2026-04-25 18:17 37.39533 -77.03581 34912 ft 475 kts 39°
2026-04-25 18:17 37.44289 -76.97806 34911 ft 474 kts 37°
2026-04-25 18:18 37.49639 -76.93176 34921 ft 462 kts 21°
2026-04-25 18:18 37.55337 -76.89402 34919 ft 463 kts 21°
2026-04-25 18:19 37.61040 -76.85621 34911 ft 463 kts 22°
2026-04-25 18:19 37.66731 -76.81835 34925 ft 462 kts 22°
2026-04-25 18:20 37.72419 -76.78041 34929 ft 462 kts 22°
2026-04-25 18:20 37.78096 -76.74244 34932 ft 462 kts 22°
2026-04-25 18:21 37.83767 -76.70431 34934 ft 461 kts 22°
2026-04-25 18:21 37.89444 -76.66639 34943 ft 461 kts 21°
2026-04-25 18:22 37.95166 -76.63001 34936 ft 460 kts 20°
2026-04-25 18:22 38.00923 -76.59426 34950 ft 461 kts 20°
2026-04-25 18:23 38.06668 -76.55803 34947 ft 461 kts 20°
2026-04-25 18:23 38.12402 -76.52145 34970 ft 462 kts 20°
2026-04-25 18:24 38.18111 -76.48500 34967 ft 462 kts 21°
2026-04-25 18:24 38.23853 -76.44830 34972 ft 462 kts 21°
2026-04-25 18:25 38.29535 -76.41007 34963 ft 466 kts 28°
2026-04-25 18:25 38.34753 -76.36026 34970 ft 469 kts 32°
2026-04-25 18:26 38.39935 -76.30952 34964 ft 470 kts 32°
2026-04-25 18:26 38.45109 -76.25865 34979 ft 470 kts 32°
2026-04-25 18:27 38.50304 -76.20773 34976 ft 470 kts 32°
2026-04-25 18:27 38.55495 -76.15685 34983 ft 471 kts 32°
2026-04-25 18:28 38.60688 -76.10575 34977 ft 471 kts 32°
2026-04-25 18:28 38.65872 -76.05529 34749 ft 471 kts 31°
2026-04-25 18:29 38.71206 -76.00571 34281 ft 472 kts 31°
2026-04-25 18:29 38.73881 -75.98116 33931 ft 473 kts 31°
2026-04-25 18:30 38.82014 -75.90574 31004 ft 492 kts 32°
2026-04-25 18:30 38.84792 -75.87962 29885 ft 500 kts 33°
2026-04-25 18:30 38.87615 -75.85303 28676 ft 506 kts 33°
2026-04-25 18:30 38.90445 -75.82631 27967 ft 501 kts 33°
2026-04-25 18:31 38.93238 -75.79989 27244 ft 497 kts 33°
2026-04-25 18:31 38.96001 -75.77373 26685 ft 490 kts 33°
2026-04-25 18:31 38.98706 -75.74809 26433 ft 478 kts 32°
2026-04-25 18:31 39.01365 -75.72293 26187 ft 472 kts 32°
2026-04-25 18:32 39.04002 -75.69796 25949 ft 469 kts 32°
2026-04-25 18:32 39.06625 -75.67313 25708 ft 467 kts 32°
2026-04-25 18:32 39.09243 -75.64837 25460 ft 465 kts 32°
2026-04-25 18:32 39.11838 -75.62380 25217 ft 463 kts 32°
2026-04-25 18:33 39.14427 -75.59927 25005 ft 461 kts 32°
2026-04-25 18:33 39.16999 -75.57486 24776 ft 458 kts 32°
2026-04-25 18:33 39.19558 -75.55054 24539 ft 456 kts 33°
2026-04-25 18:33 39.22104 -75.52631 24310 ft 454 kts 32°
2026-04-25 18:34 39.24645 -75.50232 24086 ft 451 kts 32°
2026-04-25 18:34 39.27206 -75.47901 23861 ft 449 kts 31°
2026-04-25 18:34 39.29778 -75.45629 23638 ft 447 kts 30°
2026-04-25 18:34 39.32349 -75.43389 23382 ft 445 kts 30°
2026-04-25 18:35 39.34913 -75.41165 23132 ft 443 kts 30°
2026-04-25 18:35 39.37461 -75.38939 22890 ft 441 kts 30°
2026-04-25 18:35 39.39987 -75.36713 22619 ft 440 kts 30°
2026-04-25 18:35 39.42503 -75.34477 22359 ft 438 kts 30°
2026-04-25 18:36 39.45005 -75.32239 22095 ft 436 kts 31°
2026-04-25 18:36 39.47495 -75.30005 21838 ft 435 kts 31°
2026-04-25 18:36 39.49977 -75.27778 21606 ft 433 kts 30°
2026-04-25 18:36 39.52448 -75.25545 21344 ft 432 kts 31°
2026-04-25 18:37 39.54854 -75.23321 21106 ft 431 kts 31°
2026-04-25 18:37 39.57274 -75.21044 20761 ft 429 kts 32°
2026-04-25 18:37 39.59672 -75.18769 20294 ft 425 kts 32°
2026-04-25 18:37 39.62050 -75.16508 19840 ft 422 kts 32°
2026-04-25 18:38 39.64414 -75.14269 19377 ft 419 kts 31°
2026-04-25 18:38 39.66763 -75.12052 18931 ft 416 kts 31°
2026-04-25 18:38 39.69109 -75.09879 18476 ft 412 kts 30°
2026-04-25 18:38 39.71476 -75.07796 17878 ft 410 kts 29°
2026-04-25 18:39 39.73847 -75.05779 17436 ft 405 kts 28°
2026-04-25 18:39 39.76203 -75.03798 16993 ft 401 kts 28°
2026-04-25 18:39 39.78538 -75.01830 16561 ft 399 kts 28°
2026-04-25 18:39 39.80850 -74.99861 16144 ft 397 kts 29°
2026-04-25 18:40 39.83149 -74.97887 15714 ft 395 kts 29°
2026-04-25 18:40 39.85417 -74.95928 15444 ft 384 kts 30°
2026-04-25 18:40 39.87570 -74.94015 15301 ft 363 kts 31°
2026-04-25 18:40 39.89570 -74.92192 15132 ft 341 kts 31°
2026-04-25 18:41 39.91471 -74.90430 14658 ft 332 kts 34°
2026-04-25 18:41 39.93172 -74.88403 14083 ft 332 kts 44°
2026-04-25 18:41 39.94712 -74.86171 13441 ft 330 kts 45°
2026-04-25 18:41 39.96236 -74.83980 13019 ft 324 kts 44°
2026-04-25 18:42 39.97760 -74.81808 12660 ft 325 kts 44°
2026-04-25 18:42 39.98257 -74.81100 12534 ft 325 kts 44°
2026-04-25 18:42 40.00799 -74.77473 11959 ft 322 kts 44°
2026-04-25 18:42 40.02290 -74.75347 11613 ft 322 kts 45°
2026-04-25 18:43 40.03796 -74.73194 11281 ft 321 kts 45°
2026-04-25 18:43 40.05298 -74.71042 10924 ft 320 kts 45°
2026-04-25 18:43 40.06795 -74.68892 10574 ft 320 kts 45°
2026-04-25 18:43 40.08291 -74.66744 10218 ft 320 kts 45°
2026-04-25 18:44 40.09780 -74.64605 9925 ft 317 kts 45°
2026-04-25 18:44 40.11246 -74.62491 9773 ft 312 kts 46°
2026-04-25 18:44 40.12703 -74.60390 9637 ft 312 kts 46°
2026-04-25 18:44 40.14157 -74.58293 9503 ft 311 kts 46°
2026-04-25 18:45 40.15609 -74.56196 9364 ft 311 kts 46°
2026-04-25 18:45 40.17058 -74.54102 9227 ft 310 kts 46°
2026-04-25 18:45 40.18507 -74.52012 9084 ft 310 kts 46°
2026-04-25 18:45 40.19955 -74.49925 8962 ft 309 kts 46°
2026-04-25 18:46 40.21435 -74.47890 8822 ft 309 kts 43°
2026-04-25 18:46 40.22966 -74.45926 8687 ft 308 kts 42°
2026-04-25 18:46 40.24518 -74.43997 8554 ft 308 kts 41°
2026-04-25 18:46 40.26074 -74.42081 8417 ft 307 kts 41°
2026-04-25 18:47 40.27626 -74.40160 8282 ft 307 kts 42°
2026-04-25 18:47 40.29170 -74.38236 8164 ft 306 kts 42°
2026-04-25 18:47 40.30706 -74.36308 8013 ft 305 kts 42°
2026-04-25 18:47 40.32233 -74.34378 7900 ft 304 kts 43°
2026-04-25 18:48 40.33749 -74.32456 7762 ft 303 kts 43°
2026-04-25 18:48 40.35266 -74.30528 7638 ft 303 kts 43°
2026-04-25 18:48 40.36776 -74.28609 7503 ft 303 kts 43°
2026-04-25 18:48 40.38290 -74.26684 7354 ft 302 kts 43°
2026-04-25 18:49 40.39796 -74.24769 7235 ft 302 kts 43°
2026-04-25 18:49 40.41304 -74.22852 7098 ft 302 kts 43°
2026-04-25 18:49 40.42812 -74.20936 6964 ft 302 kts 43°
2026-04-25 18:49 40.44315 -74.19025 6837 ft 298 kts 44°
2026-04-25 18:50 40.45762 -74.17184 6698 ft 290 kts 44°
2026-04-25 18:50 40.47188 -74.15365 6581 ft 282 kts 43°
2026-04-25 18:50 40.48572 -74.13600 6450 ft 274 kts 44°
2026-04-25 18:50 40.49919 -74.11884 6316 ft 265 kts 44°
2026-04-25 18:51 40.51227 -74.10226 6186 ft 257 kts 44°
2026-04-25 18:51 40.51673 -74.09691 6145 ft 255 kts 39°
2026-04-25 18:51 40.54076 -74.07537 5916 ft 250 kts 32°
2026-04-25 18:51 40.55535 -74.06301 5804 ft 249 kts 32°
2026-04-25 18:52 40.56898 -74.04920 5684 ft 246 kts 50°
2026-04-25 18:52 40.57939 -74.03139 5518 ft 245 kts 57°
2026-04-25 18:52 40.58908 -74.01308 5264 ft 243 kts 57°
2026-04-25 18:52 40.59866 -73.99493 5014 ft 240 kts 57°
2026-04-25 18:53 40.60818 -73.97700 4748 ft 238 kts 58°
2026-04-25 18:53 40.61765 -73.95929 4483 ft 235 kts 59°
2026-04-25 18:53 40.62710 -73.94188 4224 ft 233 kts 58°
2026-04-25 18:53 40.63746 -73.92586 4070 ft 228 kts 44°
2026-04-25 18:54 40.66365 -73.90308 3806 ft 224 kts 33°
2026-04-25 18:54 40.67676 -73.89220 3683 ft 222 kts 38°
2026-04-25 18:54 40.68956 -73.88080 3539 ft 221 kts 38°
2026-04-25 18:55 40.70222 -73.86954 3419 ft 219 kts 37°
2026-04-25 18:55 40.71486 -73.85832 3383 ft 219 kts 38°
2026-04-25 18:55 40.72754 -73.84719 3360 ft 219 kts 38°
2026-04-25 18:55 40.73593 -73.83980 3343 ft 219 kts 37°
2026-04-25 18:56 40.74860 -73.82863 3307 ft 219 kts 38°
2026-04-25 18:56 40.76125 -73.81752 3259 ft 218 kts 37°
2026-04-25 18:56 40.77384 -73.80640 3200 ft 218 kts 37°
2026-04-25 18:56 40.78645 -73.79532 3137 ft 218 kts 37°
2026-04-25 18:57 40.79898 -73.78431 3096 ft 213 kts 37°
2026-04-25 18:57 40.81101 -73.77381 3043 ft 203 kts 37°
2026-04-25 18:57 40.82268 -73.76372 2989 ft 199 kts 37°
2026-04-25 18:57 40.83034 -73.75710 2947 ft 198 kts 37°
2026-04-25 18:58 40.84564 -73.74377 2879 ft 196 kts 37°
2026-04-25 18:58 40.86838 -73.72388 2769 ft 196 kts 37°
2026-04-25 18:58 40.87966 -73.71401 2714 ft 192 kts 37°
2026-04-25 18:59 40.90475 -73.70191 2704 ft 204 kts 355°
2026-04-25 18:59 40.92611 -73.72334 2714 ft 192 kts 288°
2026-04-25 19:00 40.92336 -73.75307 2712 ft 152 kts 230°
2026-04-25 19:00 40.91605 -73.76244 2704 ft 144 kts 206°
2026-04-25 19:01 40.89922 -73.77638 2650 ft 143 kts 207°
2026-04-25 19:01 40.89082 -73.78335 2527 ft 142 kts 207°
2026-04-25 19:01 40.88246 -73.79029 2355 ft 141 kts 207°
2026-04-25 19:01 40.87414 -73.79719 2179 ft 141 kts 207°
2026-04-25 19:02 40.85758 -73.81092 1794 ft 140 kts 207°
2026-04-25 19:02 40.84934 -73.81775 1597 ft 139 kts 207°
2026-04-25 19:02 40.84116 -73.82453 1402 ft 139 kts 206°
2026-04-25 19:03 40.82741 -73.83591 1069 ft 142 kts 207°
2026-04-25 19:03 40.81631 -73.84511 797 ft 140 kts 208°
2026-04-25 19:03 40.80809 -73.85192 606 ft 140 kts 208°
2026-04-25 19:04 40.79203 -73.86551 214 ft 136 kts 206°
2026-04-25 19:04 40.78389 -73.87198 32 ft 137 kts 209°
2026-04-25 19:05 40.77347 -73.88058 22 ft 45 kts 211°
2026-04-25 19:05 40.77078 -73.88234 25 ft 10 kts 152°
2026-04-25 19:05 40.77053 -73.88155 24 ft 11 kts 56°
2026-04-25 19:06 40.77132 -73.88086 24 ft 16 kts 31°
2026-04-25 19:06 40.77346 -73.87912 20 ft 14 kts 33°
2026-04-25 19:06 40.77433 -73.87835 21 ft 16 kts 33°
2026-04-25 19:07 40.77535 -73.87687 20 ft 11 kts 126°
2026-04-25 19:07 40.77486 -73.87587 20 ft 14 kts 124°
2026-04-25 19:08 40.77430 -73.87294 20 ft 19 kts 91°
2026-04-25 19:08 40.77388 -73.87136 20 ft 18 kts 132°
2026-04-25 19:09 40.77282 -73.86975 21 ft 3 kts 76°
2026-04-25 19:09 40.77295 -73.86950 21 ft 6 kts 49°
2026-04-25 19:09 40.77318 -73.86923 20 ft 0 kts 42°